Regional Weather Roundup
Issued by NWS Charleston, WV

Home | Current Version | Previous Version | Graphics & Text | Print | Product List | Glossary On
Versions: 1 2 3 4 5 6 7 8 9 10 11 12 13 14 15 16 17 18 19 20 21 22 23 24 25 26 27 28 29 30 31 32 33 34 35 36 37 38 39 40 41 42 43 44 45 46 47 48 49 50
000
ASUS41 KRLX 282110
RWRRLX
West Virginia Regional Weather Roundup
National Weather Service Charleston WV
500 PM EDT SAT MAR 28 2015

Note: "fair" indicates few or no clouds below 12,000 feet with no
significant weather and/or obstructions to visibility.

WVZ003-282200-
Northern Panhandle of West Virginia

CITY           SKY/WX    TMP DP  RH WIND       PRES   REMARKS
WHEELING       MOSUNNY   31   7  36 W20G25    30.15R
$$

WVZ009-282200-
Northwest West Virginia

CITY           SKY/WX    TMP DP  RH WIND       PRES   REMARKS
PARKERSBURG    PTSUNNY   32   8  36 W8        30.25R
$$

WVZ006-282200-
Western West Virginia

CITY           SKY/WX    TMP DP  RH WIND       PRES   REMARKS
HUNTINGTON     SUNNY     36   7  29 NW13      30.23S
$$

WVZ015-282200-
West Central West Virginia

CITY           SKY/WX    TMP DP  RH WIND       PRES   REMARKS
CHARLESTON     MOSUNNY   34   4  28 W8G18     30.20S
$$

WVZ022-031-282200-
North Central West Virginia

CITY           SKY/WX    TMP DP  RH WIND       PRES   REMARKS
CLARKSBURG     PTSUNNY   30   8  39 W13       30.15S
MORGANTOWN     PTSUNNY   30   5  34 W8        30.14S
$$

WVZ025-035-042-045-282200-
Southern West Virginia

CITY           SKY/WX    TMP DP  RH WIND       PRES   REMARKS
BECKLEY        MOSUNNY   28   5  37 NW12G21   30.08S
LOGAN            N/A     32   7  34 VRB7G15   30.13S
BLUEFIELD      SUNNY     31   5  33 NW16G25   30.06R
LEWISBURG      SUNNY     31   4  31 NW13G18   30.07R
$$

WVZ047-282200-
Northern Mountains of West Virginia

CITY           SKY/WX    TMP DP  RH WIND       PRES   REMARKS
ELKINS         CLOUDY    23   9  55 W15G21    30.10R
$$

WVZ052-282200-
Eastern Panhandle of West Virginia

CITY           SKY/WX    TMP DP  RH WIND       PRES   REMARKS
MARTINSBURG    PTSUNNY   33   8  35 NW20G31   30.08R
PETERSBURG     MOSUNNY   31   5  33 NW10G23   30.12R
$$



USA.gov is the U.S. government's official web portal to all federal, state and local government web resources and services.